Weather History for KMFV - October, 2012

Change the Weather History Date:

Sunday, October 7, 2012

  Actual Average (KWAL) Record (KWAL)
Temperature  
Mean Temperature 58 °F 62 °F  
Max Temperature 64 °F 71 °F 88 °F (2007)
Min Temperature 53 °F 53 °F 40 °F (2001)
Degree Days  
Heating Degree Days 6    
Month to date heating degree days  
Since 1 July heating degree days  
Cooling Degree Days 0    
Month to date cooling degree days  
Year to date cooling degree days  
Growing Degree Days 8 (Base 50)    
Moisture  
Dew Point 50 °F    
Average Humidity 81    
Maximum Humidity 94    
Minimum Humidity 48    
Precipitation  
Precipitation 0.84 in 0.11 in 0.72 in (2013)
Month to date precipitation 0.73  
Year to date precipitation 32.10  
Sea Level Pressure  
Sea Level Pressure 30.06 in    
Wind  
Wind Speed 8 mph (North)    
Max Wind Speed 16 mph    
Max Gust Speed 24 mph    
Visibility 9 miles    
Events Rain    
T = Trace of Precipitation, MM = Missing Value Source: NWS Daily Summary

Daily Weather History Graph

Daily Weather History Graph

Search for Another Location

Airport or City:

Trip Planner

Search our weather history database for the weather conditions in past years. The results will help you decide how hot, cold, wet, or windy it might be!

Date:

Astronomy

Oct. 07, 2012 Rise Set
Actual Time 7:04 AM EDT 6:36 PM EDT
Civil Twilight 6:38 AM EDT 7:02 PM EDT
Nautical Twilight 6:07 AM EDT 7:32 PM EDT
Astronomical Twilight 5:37 AM EDT 8:03 PM EDT
Moon 11:50 PM EDT (10/7) 1:35 PM EDT (10/7)
Length of Visible Light 12h 24m
Length of Day
11h 32m
Waning Gibbous, 56% of the Moon is Illuminated
Oct 7
Waning Gibbous
Oct 8
Last Quarter
Oct 15
New
Oct 21
First Quarter
Oct 29
Full

Hourly Weather History & Observations

Time (EDT) Temp. Dew Point Humidity Pressure Visibility Wind Dir Wind Speed Gust Speed Precip Events Conditions
12:15 AM 64.4 °F 48.2 °F 56% 30.02 in 10.0 mi North 9.2 mph 17.3 mph N/A   Unknown
12:35 AM 64.4 °F 46.4 °F 52% 30.02 in 10.0 mi North 10.4 mph 16.1 mph N/A   Unknown
12:55 AM 64.4 °F 48.2 °F 56% 30.03 in 10.0 mi North 6.9 mph - N/A   Unknown
1:15 AM 64.4 °F 46.4 °F 52% 30.02 in 10.0 mi NNE 9.2 mph 16.1 mph N/A   Unknown
1:35 AM 62.6 °F 44.6 °F 52% 30.03 in 10.0 mi NNE 5.8 mph - N/A   Unknown
1:55 AM 62.6 °F 44.6 °F 52% 30.02 in 10.0 mi NNE 10.4 mph - N/A   Unknown
2:15 AM 62.6 °F 44.6 °F 52% 30.02 in 10.0 mi NNE 8.1 mph - N/A   Unknown
2:35 AM 60.8 °F 44.6 °F 55% 30.02 in 10.0 mi NNE 8.1 mph - N/A   Unknown
2:55 AM 60.8 °F 44.6 °F 55% 30.02 in 10.0 mi NNE 9.2 mph - N/A   Unknown
3:15 AM 60.8 °F 44.6 °F 55% 30.02 in 10.0 mi NNE 6.9 mph - N/A   Unknown
3:35 AM 60.8 °F 44.6 °F 55% 30.02 in 10.0 mi NNE 9.2 mph - N/A   Unknown
3:55 AM 60.8 °F 44.6 °F 55% 30.02 in 10.0 mi NNE 9.2 mph - N/A   Unknown
4:15 AM 60.8 °F 42.8 °F 52% 30.02 in 10.0 mi North 12.7 mph - N/A   Unknown
4:35 AM 60.8 °F 42.8 °F 52% 30.01 in 10.0 mi NNE 9.2 mph - N/A   Unknown
4:55 AM 60.8 °F 41.0 °F 48% 30.02 in 10.0 mi North 5.8 mph 17.3 mph N/A   Unknown
5:15 AM 60.8 °F 42.8 °F 52% 30.03 in 10.0 mi North 10.4 mph 17.3 mph N/A   Unknown
5:35 AM 60.8 °F 44.6 °F 55% 30.05 in 10.0 mi NNW 9.2 mph 16.1 mph N/A   Unknown
5:55 AM 60.8 °F 44.6 °F 55% 30.05 in 10.0 mi North 9.2 mph 18.4 mph N/A   Unknown
6:15 AM 57.2 °F 48.2 °F 72% 30.07 in 7.0 mi NNW 6.9 mph - N/A Rain Rain
6:35 AM 55.4 °F 51.8 °F 88% 30.08 in 10.0 mi North 5.8 mph - 0.07 in Rain Rain
6:55 AM 55.4 °F 51.8 °F 88% 30.06 in 4.0 mi NNE 8.1 mph - 0.24 in Rain Heavy Rain
7:15 AM 53.6 °F 51.8 °F 94% 30.07 in 10.0 mi North 6.9 mph - 0.09 in Rain Heavy Rain
7:35 AM 53.6 °F 51.8 °F 94% 30.07 in 10.0 mi NNE 6.9 mph - 0.13 in Rain Light Rain
7:55 AM 53.6 °F 50.0 °F 88% 30.06 in 10.0 mi NNE 8.1 mph - 0.13 in   Unknown
8:15 AM 53.6 °F 51.8 °F 94% 30.06 in 10.0 mi North 8.1 mph - N/A Rain Light Rain
8:35 AM 53.6 °F 51.8 °F 94% 30.08 in 10.0 mi North 5.8 mph - N/A   Unknown
8:55 AM 55.4 °F 51.8 °F 88% 30.07 in 10.0 mi NNE 8.1 mph - N/A Rain Light Rain
9:15 AM 55.4 °F 51.8 °F 88% 30.07 in 10.0 mi NNE 8.1 mph - N/A   Unknown
9:35 AM 55.4 °F 51.8 °F 88% 30.07 in 10.0 mi NE 9.2 mph 17.3 mph N/A   Overcast
9:55 AM 55.4 °F 51.8 °F 88% 30.08 in 10.0 mi North 9.2 mph - N/A   Overcast
10:15 AM 55.4 °F 50.0 °F 82% 30.07 in 10.0 mi North 6.9 mph - N/A   Overcast
10:35 AM 55.4 °F 50.0 °F 82% 30.07 in 10.0 mi NNE 4.6 mph - N/A   Unknown
10:55 AM 55.4 °F 50.0 °F 82% 30.09 in 5.0 mi NNW 8.1 mph - 0.02 in Rain Rain
11:15 AM 55.4 °F 51.8 °F 88% 30.08 in 10.0 mi North 8.1 mph - 0.06 in Rain Light Rain
11:35 AM 53.6 °F 51.8 °F 94% 30.08 in 7.0 mi North 10.4 mph - 0.09 in Rain Heavy Rain
11:55 AM 53.6 °F 51.8 °F 94% 30.09 in 3.0 mi NE 9.2 mph - 0.23 in Rain Heavy Rain
12:15 PM 53.6 °F 51.8 °F 94% 30.10 in 7.0 mi North 5.8 mph - 0.08 in Rain Heavy Rain
12:35 PM 53.6 °F 51.8 °F 94% 30.07 in 10.0 mi NNE 6.9 mph - 0.12 in Rain Rain
12:55 PM 53.6 °F 50.0 °F 88% 30.06 in 10.0 mi North 6.9 mph - 0.16 in Rain Rain
1:35 PM 55.4 °F 51.8 °F 88% 30.04 in 10.0 mi NNE 6.9 mph - 0.02 in   Unknown
1:55 PM 57.2 °F 53.6 °F 88% 30.04 in 10.0 mi NNE 6.9 mph - 0.02 in   Unknown
2:15 PM 57.2 °F 53.6 °F 88% 30.02 in 10.0 mi North 10.4 mph - N/A   Unknown
2:35 PM 57.2 °F 53.6 °F 88% 30.02 in 10.0 mi North 10.4 mph - N/A   Unknown
2:55 PM 57.2 °F 53.6 °F 88% 30.02 in 10.0 mi NNE 6.9 mph - N/A   Unknown
3:15 PM 57.2 °F 53.6 °F 88% 30.01 in 10.0 mi NNE 5.8 mph - N/A   Unknown
3:35 PM 57.2 °F 53.6 °F 88% 30.02 in 10.0 mi North 5.8 mph - N/A   Unknown
3:55 PM 57.2 °F 53.6 °F 88% 30.01 in 10.0 mi North 5.8 mph - N/A   Unknown
4:15 PM 57.2 °F 53.6 °F 88% 30.01 in 10.0 mi NNE 4.6 mph - N/A   Unknown
4:35 PM 57.2 °F 53.6 °F 88% 30.00 in 10.0 mi North 4.6 mph - N/A   Unknown
4:55 PM 57.2 °F 53.6 °F 88% 30.00 in 10.0 mi North 3.5 mph - N/A   Unknown
5:15 PM 57.2 °F 53.6 °F 88% 30.00 in 10.0 mi NNE 4.6 mph - N/A   Unknown
5:35 PM 57.2 °F 53.6 °F 88% 30.01 in 10.0 mi North 8.1 mph - N/A   Unknown
5:55 PM 55.4 °F 51.8 °F 88% 30.02 in 10.0 mi North 5.8 mph - N/A   Unknown
6:15 PM 55.4 °F 51.8 °F 88% 30.03 in 10.0 mi North 8.1 mph - N/A   Unknown
6:35 PM 55.4 °F 51.8 °F 88% 30.04 in 3.0 mi NNW 3.5 mph - N/A   Drizzle
6:55 PM 55.4 °F 53.6 °F 94% 30.04 in 3.0 mi NNW 5.8 mph - N/A   Drizzle
7:15 PM 55.4 °F 53.6 °F 94% 30.06 in 3.0 mi NNW 6.9 mph - 0.01 in   Drizzle
7:35 PM 55.4 °F 53.6 °F 94% 30.09 in 3.0 mi NNW 8.1 mph 17.3 mph 0.01 in   Drizzle
7:55 PM 55.4 °F 53.6 °F 94% 30.09 in 3.0 mi NNW 9.2 mph 16.1 mph 0.02 in   Drizzle
8:15 PM 55.4 °F 51.8 °F 88% 30.10 in 4.0 mi NNW 10.4 mph 17.3 mph 0.01 in   Light Drizzle
8:35 PM 55.4 °F 51.8 °F 88% 30.10 in 4.0 mi NNW 16.1 mph 24.2 mph 0.01 in   Drizzle
8:55 PM 53.6 °F 51.8 °F 94% 30.12 in 5.0 mi NNW 11.5 mph 17.3 mph 0.01 in   Light Drizzle
9:15 PM 53.6 °F 51.8 °F 94% 30.12 in 7.0 mi North 10.4 mph 18.4 mph 0.01 in   Unknown
9:35 PM 53.6 °F 51.8 °F 94% 30.12 in 10.0 mi North 10.4 mph 16.1 mph 0.01 in   Unknown
9:55 PM 53.6 °F 51.8 °F 94% 30.13 in 10.0 mi North 10.4 mph - 0.01 in   Unknown
10:15 PM 53.6 °F 51.8 °F 94% 30.13 in 10.0 mi North 9.2 mph 16.1 mph N/A   Unknown
10:35 PM 53.6 °F 51.8 °F 94% 30.13 in 10.0 mi North 10.4 mph - N/A   Unknown
10:55 PM 53.6 °F 51.8 °F 94% 30.14 in 10.0 mi North 8.1 mph - N/A   Light Drizzle
11:15 PM 53.6 °F 51.8 °F 94% 30.13 in 10.0 mi North 6.9 mph - N/A   Unknown
11:35 PM 53.6 °F 51.8 °F 94% 30.14 in 10.0 mi North 6.9 mph - N/A   Unknown
11:55 PM 53.6 °F 51.8 °F 94% 30.14 in 10.0 mi North 8.1 mph - N/A   Unknown